Location: Arroyo Grande
(40.2671°N, 4.2512°W)
Time: 06:24:16
(UTC+00:00)

Cosmos 2219 Rocket - Pass Details

Date: 03 February 2023
Orbit: 826 x 848 km, 71.0° (Epoch: 26 March)

Event Time Altitude Azimuth Distance (km) Brightness Sun altitude
Rises 19:44:26 0° 207° (SSW) 3,349 5.7 -24.4°
Reaches altitude 10° 19:46:52 10° 209° (SSW) 2,420 4.9 -24.9°
Maximum altitude 19:52:24 73° 295° (WNW) 868 2.3 -26.0°
Enters shadow 19:54:48 35° 11° (N) 1,311 3.0 -26.4°
